Погода в Казачинске

Погода в Казачинске : погода сейчас, прогноз погоды и архив. Всё, что Вы хотите узнать о погоде в Казачинске!

Хотите узнать прогноз погоды в Казачинске? Тогда Вам сюда: Погода в Казачинске

Поиск расширенной информации на нашем сайте:

Другие новости

Новости СМИ2

Главная страница сайта

Новости сайта

03.07.2017

Напоминаем, что на нашем специализированном сайте Метеоцентр.Азия вы можете получить высокодетализированные автоматические прогнозы погоды по пунктам России, СНГ и мира в авиационном формате (включающие направление и скорость ветра, видимость, явления погоды, количество и форму облачности, нижнюю и верхнюю границу облачности).

Рекомендуем: Только отдых в тунисе можно назвать полноценным отдыхом души и тела.

Погода в Казачинске - сегодня

Время (UTC), дата Ветер
(°,м/с) 
Видим.   Явления Облачность Т
(°С)
Тd
(°С)
f(%) Тe
(°С)
Pmin
(гПа)
dP
(гПа)
Po
(мм)
O2
(г/м3)
Тmin Tmax R s Состояние
почвы
06 17.10.18 тихо ()   20000 м    10/0 верхняя 
[Cs]
+9.6 -2 44 +10  1018.2  -0.2  732  285           
09 17.10.18 070 (В) 20000 м    10/4 600 м кучево-дожд., верхняя 
[Cb cap|Cs]
+8.7 -2.2 46 +10  1019.5  1.1  732  286           
12 17.10.18 350 (С) н/о    10/4 600 м кучево-дожд., верхняя 
[Cb cap|Cs]
+1.9 -2 75 +3  1021.9  1.3  733  294    +11.8       
15 17.10.18 090 (В) н/о    10/6 600 м кучево-дожд., верхняя 
[Cb cap|Cs]
+0.5 -1.9 84 +1  1023.1  0.9  734  295           
18 17.10.18 тихо ()   н/о    10/10 600 м кучево-дожд. 
[Cb cap]
-0.5 -2.1 89 -1  1024.5  1.2  735  297           
21 17.10.18 тихо ()   н/о    10/10 600 м кучево-дожд. 
[Cb cap]
-0.5 -2.2 88 -1  1024.9  0.4  735  297           
00 18.10.18 тихо ()   20000 м    10/3 600 м кучево-дожд., верхняя 
[Cb cap|Cs]
-3.4 -3.9 96 -3  1025.9  0.5  736  301  -3.4         
03 18.10.18 150 (ЮВ) 20000 м    10/3 600 м кучево-дожд., верхняя 
[Cb cap|Cs]
+3 -0.8 76 +4  1024.7  -0.1  736  293  -3.5         
06 18.10.18 050 (СВ) 20000 м    10/0 верхняя 
[Cs]
+8.4 -0 55 +8  1021.6  -2.2  734  287           
09 18.10.18 020 (С) 20000 м    10/0 верхняя 
[Cs]
+7.7 -0.5 56 +9  1019.6  -1.9  732  287           
12 18.10.18 350 (С) н/о    3/0 верхняя 
[Ci fib]
-0.5 -2.2 88 1021  732  296    +9.2       
15 18.10.18 310 (СЗ) н/о    3/0 верхняя 
[Ci fib]
-2.5 -3.3 94 -2  1021.1  -0.3  732  298           
18 18.10.18 тихо ()   н/о    4/0 верхняя 
[Ci fib]
-4.1 -4.8 95 -4  1021.2  -0.1  732  300           
21 18.10.18 тихо ()   н/о    3/0 верхняя 
[Ci fib]
-5.4 -6.1 95 -5  1022.7  1.1  733  302           
00 19.10.18 тихо ()   10 км  туман на расстоянии  9/0 средняя, верхняя 
[Ac lent|Ci fib]
-5.2 -5.9 95 -5  1023.5  0.9  734  302  -6         
03 19.10.18 180 (Ю) 20000 м    3/0 верхняя 
[Ci fib]
+1.2 -2.3 77 +2  1022.7  0.3  734  295           
06 19.10.18 040 (СВ) 20000 м    5/0 верхняя 
[Ci fib]
+7.7 -1.2 53 +7  1019.8  -1.8  733  287           
09 19.10.18 020 (С) 20000 м    10/0 верхняя 
[Cs]
+6.2 -1.4 58 +7  1019.5  -0.5  732  289           
12 19.10.18 350 (С) н/о    10/0 верхняя 
[Cs]
+3.1 -2.2 68 +3  1019.9  -0.1  732  292    +8.2       
15 19.10.18 тихо ()   н/о    10/0 верхняя 
[Cs]
-0.2 -3.5 78 -0  1020.2  -0.3  732  295           
18 19.10.18 тихо ()   н/о    3/0 верхняя 
[Ci fib]
-3.9 -4.7 94 -4  1020.4  -0.3  732  300           
21 19.10.18 тихо ()   н/о    ясно 
-5.6 -6.3 95 -6  1019.3  -1.3  731  301           
00 20.10.18 230 (ЮЗ) 20000 м    8/0 верхняя 
[Ci fib]
-6.5 -7.2 95 -6  1019.1  -0.3  730  302  -6.7         
03 20.10.18 050 (СВ) 20000 м    9/3 600 м кучево-дожд., верхняя 
[Cb cap|Ci fib]
-0.5 -3.9 78 -1  1017.5  -0.6  730  295           
06 20.10.18 050 (СВ) 20000 м    10/3 600 м кучево-дожд., верхняя 
[Cb cap|Cs]
+2.9 -3.7 62 +2  1015.9  -1  729  291           
Время (UTC), дата Ветер
(°,м/с) 
Видим.   Явления Облачность Т
(°С)
Тd
(°С)
f(%) Тe
(°С)
Pmin
(гПа)
dP
(гПа)
Po
(мм)
O2
(г/м3)
Тmin Tmax R s Состояние
почвы

Для получения пояснительной информации подведите курсор к названию столбца.

ПОГОДА в Казачинске - архив

Всё, что Вы хотите узнать о погоде в Казачинске - удобно и подробно!

Выберите нужную дату (начиная с 1 января 2015* года) и нажмите кнопку "Найти".
Будут отображены архивные сводки погоды по пункту Казачинск, начиная с указанной даты.


Отображать данные в формате CSV (для использования в таблицах Excel)


Внимание! Наш архив погоды предназначен исключительно для личного некоммерческого использования в познавательных целях. Если Вам необходимы официальные справки о состоянии погоды (для производственных, юридических, коммерческих и т.п. целей), обращайтесь в органы Росгидромета.

*Примечание: данная дата относится к архиву по метеостанциям СССР (Россия, СНГ, Балтия).
Архив по метеостанциям Зарубежной Европы и Азии (кроме Китая) хранится 10 дней, по другим регионам земного шара (Китай, Африка, Америка, Австралия, Океания) - 1 день.

Казачинск - район местоположения метеостанции


Название, широта, долгота, высота метеостанции:
Казачинск 56.3°ш. 107.6°д. 362 м над ур. моря [Российская Федерация]

Дополнительная информация

В oтличие oт бoльшинства пoгoдных сайтoв мы публикуем пoдрoбную метеoинфoрмацию в детальнoм прoфессиoнальнoм фoрмате.

Характеристики температуры и влажнoсти вoздуха измеряются на высoте 2 м в тени вдали oт зданий и деревьев.
Скoрoсть ветра измеряется на высoте 10 м (на урoвне рoста челoвека скoрoсть ветра ниже в 1.5-2 раза). Если метеoстанция нахoдится в гoрoде или в лесу, тo скoрoсть ветра занижена на 2-4 м/с пo сравнению с oткрытым местoм. Скoрoсть ветра над акватoриями крупных рек и oзёр, а также на вершинах хoлмoв на 2-5 м/с выше, чем в oбычных услoвиях.
Атмoсфернoе давление в разных тoчках местнoсти мoжет значительнo oтличаться oт давления на метеoстанции, в зависимoсти oт услoвий рельефа (при пoдъёме на 10 м давление пoнижается примернo на 1 мм рт.ст.).